Temp
19 19 20 20 20 19 19 19 19 19 19 19 19 19 19 18 18 18 18 18 18 18 19 19 18 18 18 18 17 17 17 18 17 18 18 17 17 17 17 17 18 18 18
21 20 20 20 20 19 19 18 19 19 19 19 19 19 19 19 18 18 18 18 18 18 18 19 18 17 17 17 17 17 17 18 18 18 17 17 17 17 17 17 17 17 17
21 20 19 20 20 19 19 19 19 19 19 19 19 19 19 19 18 18 18 18 18 18 18 18 18 18 17 17 17 18 18 18 17 18 17 17 17 16 16 17 17 17 17
21 20 20 20 20 20 19 19 19 19 19 19 19 19 19 19 18 18 18 18 18 17 17 18 18 18 17 17 17 17 18 18 17 17 17 17 17 17 17 17 16 16 16
20 20 20 20 19 19 19 19 19 19 19 19 19 19 19 18 18 19 19 18 17 17 17 17 18 18 17 17 18 18 18 17 17 17 17 17 17 17 17 17 16 16 16
20 20 20 20 20 19 19 19 19 19 19 19 19 19 19 18 18 19 18 17 17 17 17 18 18 17 17 18 18 18 17 17 17 17 17 17 17 17 16 16 16 16 16
20 20 19 19 19 19 19 19 19 19 19 19 18 19 19 18 18 18 18 16 17 16 17 17 17 16 17 18 17 18 17 17 17 17 17 17 17 16 16 16 16 16 17
20 19 19 19 19 19 19 19 19 19 19 19 19 18 19 18 18 18 18 16 16 16 16 16 16 16 17 17 17 18 18 17 17 17 16 16 16 16 16 15 16 16 16
20 19 19 19 19 19 19 19 19 19 19 18 19 19 18 18 19 18 17 16 16 16 16 16 16 16 17 17 17 17 17 17 17 17 16 16 16 16 16 15 15 15 15
20 20 19 19 19 19 18 19 19 19 19 18 18 19 18 18 18 17 16 16 16 16 15 16 16 17 17 17 17 17 17 16 16 16 16 16 16 15 16 16 15 15 15
20 20 20 20 19 19 19 18 18 19 18 18 18 18 18 18 17 16 16 16 16 16 16 16 17 17 17 16 17 16 17 16 16 16 16 16 15 15 15 14 15 14 14
19 20 21 21 20 19 19 19 18 18 18 18 18 18 18 17 16 16 15 16 16 16 16 16 17 16 16 16 16 16 17 16 15 15 15 15 15 15 14 14 14 14 14
19 19 20 21 21 20 19 19 18 18 18 18 17 18 18 17 16 16 15 15 16 16 16 16 16 16 16 16 16 16 16 16 15 15 15 15 14 14 14 14 14 13 14
18 19 19 20 20 20 19 18 18 18 18 18 17 17 17 17 16 16 15 15 16 16 16 16 17 16 16 16 16 16 16 16 14 15 15 14 14 14 14 14 14 13 13
16 18 19 19 20 20 19 18 18 18 18 18 17 17 17 17 16 16 15 15 16 16 16 15 16 16 16 16 16 16 15 15 15 14 15 14 14 14 14 13 13 13 13
17 18 19 19 19 20 19 19 18 17 17 17 17 17 17 17 17 16 15 15 15 16 16 16 16 16 16 15 15 15 15 15 14 14 14 14 14 14 14 13 13 13 13
18 18 18 19 19 19 19 18 17 17 16 16 16 17 16 16 17 17 15 15 15 15 16 16 15 15 15 14 15 14 14 14 14 14 14 14 14 14 14 13 13 13 13
17 17 18 19 19 19 18 18 17 15 15 15 15 16 16 16 16 16 16 15 15 15 16 15 15 14 14 14 14 14 14 14 14 14 14 14 14 13 14 13 13 12 12
16 17 17 17 18 18 18 17 17 15 15 15 15 15 15 16 15 15 15 15 14 15 15 15 15 14 12 12 13 13 13 13 13 13 13 13 13 13 13 13 13 12 12
14 15 16 16 16 16 16 15 14 14 14 14 14 15 16 15 16 14 13 13 14 14 14 14 14 13 13 11 11 12 12 12 13 12 13 13 12 13 13 13 12 12 11
11 12 13 14 14 15 13 13 13 14 14 15 14 15 16 15 15 15 14 13 12 13 13 14 12 12 10 11 9 8 10 11 11 12 12 12 12 12 12 12 12 11 10
10 10 10 11 11 11 11 11 13 13 13 14 14 14 14 14 14 14 13 13 12 12 12 12 11 11 10 11 12 9 9 8 9 10 10 11 11 11 11 11 11 11 10
9 10 11 10 10 10 10 10 11 11 11 11 12 12 13 13 13 13 13 13 12 12 11 12 10 11 10 10 11 12 9 11 8 8 9 9 10 10 10 11 10 10 10
6 9 10 11 11 10 10 11 10 10 11 11 11 11 12 12 12 13 13 13 12 12 12 12 11 11 11 10 10 12 13 11 11 9 7 8 9 9 10 10 10 10 9
6 7 8 10 11 11 11 11 10 10 11 11 10 11 11 11 11 12 12 12 12 11 11 12 12 10 11 11 11 10 10 9 9 10 10 7 6 8 8 9 9 9 9
6 6 7 9 10 11 11 11 10 10 10 11 10 10 10 10 10 11 11 11 11 12 12 12 12 11 11 11 11 11 10 11 10 9 9 8 9 6 7 8 8 8 8
Height
774 776 778 781 784 787 790 793 795 798 800 802 804 806 808 810 812 814 816 818 820 822 824 824 825 826 827 829 830 832 832 834 835 836 836 837 837 838 839 840 841 842 843
771 774 778 780 784 787 790 793 796 798 800 803 805 807 808 810 812 814 817 819 821 823 825 826 827 828 829 831 832 833 833 834 836 838 838 839 840 841 842 843 842 844 844
772 774 778 780 783 787 790 793 796 799 801 803 806 808 810 811 813 814 817 819 822 824 826 827 829 830 831 832 832 833 834 835 837 839 840 842 844 844 845 845 845 846 846
773 774 777 780 783 786 789 793 796 799 801 803 805 808 810 812 814 815 817 819 822 824 826 828 830 831 832 833 834 835 835 836 838 840 843 845 847 847 847 847 847 847 847
772 774 777 780 783 786 789 792 795 798 801 803 805 808 810 812 814 815 818 820 822 824 827 829 831 832 834 835 836 837 838 838 840 842 844 846 848 849 849 848 848 849 849
772 774 777 780 783 786 788 792 795 797 799 802 804 807 810 812 814 816 818 821 823 824 826 829 831 834 835 837 838 839 840 841 842 844 846 847 849 850 851 850 850 851 850
773 775 777 780 783 786 788 791 793 796 798 801 804 806 809 812 814 816 818 822 823 825 827 829 832 834 836 838 840 841 843 844 845 846 848 849 850 852 853 853 852 853 853
774 775 777 779 782 784 787 790 792 795 797 800 803 806 808 811 814 816 818 822 824 826 828 829 832 834 836 838 840 842 845 846 848 849 850 852 852 854 855 855 854 854 855
774 775 776 778 780 783 786 788 791 793 796 799 802 805 808 810 813 816 818 822 824 826 828 830 832 835 837 839 840 843 846 847 849 851 852 853 854 856 856 857 857 857 857
772 773 775 776 778 781 783 786 789 792 794 798 801 804 808 810 812 815 819 822 825 826 828 830 833 835 838 840 842 845 847 849 850 852 852 854 856 858 859 859 859 860 860
770 771 773 774 776 778 781 783 786 789 792 796 800 802 806 809 812 815 817 821 824 826 828 830 833 836 838 841 844 847 848 850 851 853 855 857 858 860 860 860 861 862 863
767 769 770 772 773 775 777 780 783 786 789 793 797 799 803 807 810 814 816 820 823 826 829 830 833 836 838 841 845 848 849 852 854 855 857 858 860 861 861 862 863 863 864
762 765 766 768 769 771 773 776 779 782 786 790 794 796 799 804 809 812 816 819 822 825 828 830 832 835 838 841 845 847 850 852 855 856 857 859 860 862 863 863 864 866 867
757 758 761 763 764 766 769 771 775 779 782 786 790 793 796 800 805 810 813 817 819 822 825 829 831 835 839 843 845 847 850 852 854 857 858 860 861 862 864 865 866 867 869
752 753 755 758 760 762 764 767 770 774 777 781 785 789 792 795 799 806 810 814 817 819 823 827 831 834 838 842 844 847 849 852 854 856 858 860 862 863 864 866 867 869 870
745 745 747 751 754 757 760 763 766 769 772 776 780 784 789 792 794 800 807 811 814 816 820 825 829 833 837 840 843 846 848 851 853 856 858 860 862 863 865 866 869 870 872
739 740 742 744 748 751 756 759 762 765 768 772 775 779 784 788 791 794 801 806 810 813 817 822 827 832 835 839 842 845 848 851 853 856 858 860 862 864 866 867 869 871 872
733 733 736 739 742 746 750 754 757 761 765 767 771 775 779 784 788 791 795 801 806 810 814 818 823 830 833 838 841 845 848 851 853 856 858 860 862 864 866 867 870 870 871
729 729 730 733 737 741 746 750 753 757 761 764 768 771 774 779 783 787 789 794 800 804 809 814 819 825 832 835 840 844 848 851 854 856 858 860 862 864 865 867 868 870 871
726 726 727 729 733 738 743 747 751 754 758 761 764 767 771 774 778 783 787 791 793 798 804 810 815 820 827 833 839 844 848 850 853 856 858 860 861 863 865 866 868 870 873
727 726 726 727 731 734 739 745 749 751 755 758 761 764 767 770 773 778 783 789 793 797 797 805 813 817 824 829 836 845 849 851 853 855 857 859 861 862 864 866 868 870 872
732 731 730 730 732 734 737 741 746 749 751 754 757 760 763 765 769 773 777 782 790 796 797 803 810 817 821 823 830 839 848 853 852 853 855 857 859 861 862 865 867 869 871
735 735 733 733 733 734 737 740 744 746 749 751 753 756 759 762 765 769 773 777 782 788 792 794 809 815 817 820 822 826 841 841 848 851 853 855 857 859 861 863 865 868 869
739 736 735 734 735 735 737 740 742 744 747 748 751 754 757 759 763 766 769 773 778 782 786 789 803 813 817 815 819 821 825 828 837 848 851 853 855 857 859 861 863 865 868
742 740 737 735 735 736 737 739 742 744 747 748 750 753 755 757 760 763 766 770 772 775 779 783 783 805 810 812 812 817 822 826 828 833 840 848 852 854 856 858 861 863 865
746 743 740 737 736 736 737 739 741 743 744 745 747 750 752 754 757 759 763 766 769 770 772 776 781 781 798 803 810 811 813 818 823 826 833 843 846 849 852 855 857 860 862
Wind_Speed
11 19 20 21 19 20 19 18 19 21 20 20 19 19 19 20 18 17 17 17 17 15 14 12 14 16 17 17 16 16 16 15 14 14 17 19 19 19 17 15 16 15 16
10 23 21 21 20 20 20 19 19 20 21 21 19 20 19 18 18 16 17 19 17 14 12 11 10 14 15 14 13 13 14 14 14 13 15 17 19 19 18 20 20 19 19
14 22 20 21 22 22 21 19 19 20 20 20 20 18 17 17 16 16 17 18 15 13 12 11 12 13 12 11 11 12 12 13 15 14 14 14 14 15 14 15 16 16 16
12 19 20 21 22 23 22 21 19 19 20 19 20 18 17 17 17 18 17 15 12 11 11 12 10 10 9 13 14 13 14 14 16 15 14 13 14 13 14 13 13 13 14
16 17 21 20 21 21 22 23 22 20 20 19 18 20 19 18 18 17 15 12 13 12 13 13 12 12 14 17 16 16 16 16 18 17 15 18 16 14 14 14 13 12 13
17 18 18 20 20 20 20 21 22 23 22 21 20 18 18 17 15 15 13 13 13 15 15 13 15 14 17 19 17 17 17 19 20 22 21 18 15 13 14 15 13 15 16
16 16 16 18 18 19 20 21 21 23 22 22 21 18 17 16 16 15 12 13 14 15 14 15 16 17 17 18 16 15 15 15 17 17 17 15 14 15 16 14 16 15 17
13 13 15 17 16 18 19 21 22 24 22 23 22 17 17 16 15 13 13 14 15 14 14 15 17 16 17 16 18 16 12 10 12 14 13 16 20 18 14 14 16 20 21
9 11 14 16 18 17 19 21 23 23 23 23 21 19 15 15 12 12 12 15 14 13 15 17 19 17 15 16 16 17 10 9 15 14 16 16 15 13 15 12 15 16 18
7 8 13 16 18 19 20 21 22 22 23 23 23 21 19 18 16 14 13 14 14 14 16 18 20 17 16 15 15 14 12 17 16 15 13 12 11 11 12 12 12 13 15
10 10 10 14 19 21 20 22 22 24 24 25 25 23 22 20 18 18 16 16 15 15 18 21 17 18 17 18 18 16 19 15 13 13 9 8 9 10 11 11 11 12 12
14 16 15 15 18 22 24 23 23 24 25 26 28 26 25 23 22 19 19 18 17 17 18 19 18 18 21 20 20 18 18 16 11 12 10 12 12 12 12 12 11 12 11
27 25 23 21 20 22 25 26 24 25 26 29 30 29 25 24 23 21 20 19 18 18 19 19 21 19 21 18 19 20 18 14 14 13 14 13 13 13 14 13 13 13 13
24 25 23 25 24 23 25 28 28 26 28 30 31 31 30 28 25 24 22 20 22 21 23 20 22 21 19 19 20 20 19 16 17 13 13 13 13 14 12 14 13 13 14
25 27 26 24 26 26 23 25 27 28 29 32 33 33 34 31 29 26 26 24 22 24 25 22 24 24 23 25 22 22 21 20 18 14 15 14 15 13 14 14 13 14 13
24 26 25 28 25 27 25 24 24 27 28 31 35 37 36 34 31 30 29 28 23 26 28 27 25 27 27 27 24 24 22 22 21 17 15 14 13 15 15 14 15 13 12
23 21 23 24 26 26 27 24 22 22 25 29 34 38 38 35 34 31 31 30 25 29 28 28 25 28 30 27 25 23 23 23 20 18 18 16 15 13 15 15 14 12 14
19 19 19 22 24 26 27 26 22 20 24 28 31 35 36 36 35 35 34 37 27 33 30 32 30 29 29 28 26 24 24 22 21 19 17 16 17 15 15 17 15 14 13
13 14 16 19 23 25 25 24 22 21 21 25 28 31 34 34 35 36 37 40 34 37 33 35 35 34 24 25 25 24 24 23 22 20 18 17 17 18 18 16 15 14 11
5 7 11 15 20 22 22 20 20 19 21 23 27 28 31 32 32 36 28 32 38 36 35 36 38 36 33 24 21 23 22 22 21 20 18 18 18 18 17 17 17 14 13
10 4 4 12 17 21 20 17 18 21 22 24 27 26 28 31 32 35 33 23 31 33 36 41 36 37 26 29 23 14 15 16 18 18 18 19 18 17 18 17 16 15 13
10 9 6 6 12 12 11 11 12 20 22 24 27 27 28 30 32 33 35 30 34 25 31 30 32 27 23 36 20 13 3 3 11 16 18 19 19 19 19 18 16 14 11
16 12 6 3 4 7 9 11 11 14 12 18 20 23 26 28 30 32 34 33 34 37 33 38 25 30 23 32 29 11 4 4 7 10 16 18 19 19 18 18 16 14 13
20 13 7 3 2 3 7 9 12 11 13 17 20 20 22 25 27 29 30 32 37 41 42 40 38 31 25 31 29 20 19 15 5 4 8 16 18 19 20 19 18 16 14
21 20 15 6 2 1 4 8 13 16 14 13 16 19 26 23 23 27 29 31 35 36 43 47 44 33 30 30 31 23 15 11 11 5 5 10 14 19 20 20 19 17 15
25 25 23 20 9 4 4 6 11 14 17 15 15 16 19 23 26 28 31 31 34 35 41 44 47 48 36 32 35 29 21 12 11 6 3 10 17 12 21 21 20 19 17
Wind_Direction
200 177 175 174 170 162 155 155 156 151 152 155 157 157 154 151 148 145 144 141 134 128 125 127 120 122 122 120 119 118 117 116 114 115 108 106 105 100 108 112 117 116 114
180 176 179 175 177 168 162 161 163 161 158 156 157 159 158 157 153 153 150 143 134 130 133 131 121 113 111 119 123 124 126 132 135 128 118 107 103 99 102 100 94 98 100
169 173 176 179 179 179 174 173 171 168 165 162 160 161 167 160 159 157 156 143 140 140 142 142 133 119 118 125 127 130 135 138 140 135 129 116 112 106 103 109 108 98 96
181 178 179 183 183 182 182 182 177 172 171 169 167 168 167 164 161 155 144 145 148 144 150 156 158 156 140 133 134 133 130 134 140 140 132 126 120 106 104 109 106 103 103
189 184 183 185 187 185 182 182 178 174 175 172 169 167 165 168 164 153 164 158 145 145 148 158 157 163 149 142 131 127 133 138 138 134 132 129 121 110 105 108 107 114 109
177 185 186 193 194 190 188 187 185 178 180 179 174 172 169 166 167 165 169 153 150 146 142 156 165 164 147 141 137 128 120 128 133 130 124 120 117 116 107 105 106 110 109
179 187 190 198 202 201 195 193 188 184 184 180 176 174 169 168 166 165 175 160 155 152 152 163 164 167 158 150 144 141 130 122 117 120 121 116 117 112 117 100 101 117 112
187 198 199 202 207 207 205 198 194 192 189 182 179 175 170 167 165 171 181 164 157 153 160 158 160 166 155 154 149 148 164 153 136 122 122 118 108 105 121 99 98 100 100
204 221 214 211 209 212 213 208 203 199 197 189 184 177 176 178 187 201 181 166 165 162 163 161 159 160 159 154 155 150 165 173 151 135 119 117 115 111 115 112 97 98 98
191 199 220 224 219 217 216 216 213 209 204 195 182 181 186 192 187 189 178 172 175 171 166 168 156 155 163 162 159 151 152 148 140 138 133 130 127 117 129 125 109 103 101
217 219 217 222 225 223 222 219 217 213 210 202 188 186 185 187 182 176 176 173 173 174 165 164 166 171 170 160 151 163 152 147 138 146 150 145 139 139 138 122 124 108 109
235 232 235 231 224 226 225 224 220 217 211 205 194 190 191 189 182 179 176 173 176 176 176 168 163 174 169 164 162 169 166 161 147 152 157 150 142 131 127 127 133 120 126
260 247 240 231 229 225 226 226 221 218 212 206 197 194 191 186 182 182 176 175 178 179 177 174 171 177 172 172 175 177 169 162 149 142 145 153 138 138 133 129 130 126 122
248 240 228 229 230 229 226 227 223 217 213 208 201 198 189 186 189 189 182 179 179 185 184 183 178 181 172 172 170 170 175 172 154 149 158 154 150 140 139 136 135 127 124
247 240 236 230 227 227 226 226 226 220 218 213 205 205 198 192 189 194 187 182 183 191 189 189 182 183 175 178 177 177 167 164 160 155 164 157 152 152 143 140 136 133 130
249 244 235 228 225 223 224 223 222 223 220 213 210 209 207 200 197 193 192 188 186 195 189 196 188 183 184 181 177 174 171 167 162 160 166 167 157 153 147 144 141 137 137
260 255 239 228 222 220 220 222 218 209 209 211 213 210 207 206 202 197 196 192 188 194 194 190 189 180 179 176 175 174 171 168 168 167 176 169 163 158 161 148 141 156 158
261 248 239 227 222 217 217 219 218 207 208 211 207 215 211 208 207 203 199 195 189 193 196 186 186 178 176 176 173 172 172 172 169 172 174 172 170 162 158 153 156 126 119
266 249 234 221 215 214 215 217 217 209 202 211 214 212 213 213 215 207 202 199 191 193 194 190 186 184 175 173 173 172 172 172 174 174 182 179 175 168 162 156 155 149 144
302 254 232 216 207 201 202 205 209 206 207 208 213 214 214 217 219 213 202 197 193 187 188 194 188 184 183 170 162 167 170 172 176 180 183 182 181 175 172 177 168 164 144
32 53 159 182 180 181 179 176 193 201 208 214 214 222 222 224 220 217 213 205 193 193 184 196 184 178 167 168 149 140 161 174 179 183 185 183 180 179 177 183 185 180 168
28 29 56 125 163 164 173 187 195 204 209 213 215 216 219 221 220 220 211 203 202 192 180 185 182 169 172 174 169 141 144 163 194 192 190 190 187 184 181 188 188 192 186
17 15 32 81 145 157 172 183 195 197 211 209 212 215 215 221 223 220 214 205 193 188 180 184 190 185 175 180 174 162 150 187 146 202 201 198 196 193 190 194 196 197 191
2 14 31 40 66 186 198 203 202 203 209 217 218 214 209 212 214 214 216 207 187 189 189 194 195 193 189 184 182 194 189 144 171 169 205 206 203 200 199 196 195 194 192
18 17 20 22 30 241 209 216 221 226 228 232 224 222 220 210 207 209 211 209 197 188 190 191 190 198 196 193 188 189 176 171 156 144 173 183 204 204 203 202 200 198 196
19 17 20 23 18 342 279 256 236 233 235 232 225 216 218 227 230 226 223 220 207 197 199 197 197 192 198 197 197 194 182 173 177 153 124 178 193 204 209 207 206 204 201